Flag for Myanmar Weather past 2 weeks in Yangon, Myanmar

Now
81 °F

Passing clouds.


Feels Like: 88 °F
Forecast: 77 / 86 °F
Wind: 9 mph from South

Location: Rangoon Airport

Current Time: May 23, 2015 at 9:54:58 PM

Latest Report: May 23, 2015 at 9:00 PM


Visibility: 4 mi

Pressure: 29.77 "Hg

Humidity: 94%

Dew point: 79 °F

Location of YangonLocation

Historic Weather in Yangon — Graph

°F

Yangon temperature yesterday

Maximum temperature yesterday: 82 °F (at 12:00 PM)
Minimum temperature yesterday: 75 °F (at 9:00 PM)
Average temperature yesterday: 78 °F

Past Weeks' High & Low Weather Summary

 TemperatureHumidityPressure
High102 °F (May 11, 3:00 PM)100% (May 18, 4:00 PM)32.49 "Hg (May 18, 4:00 PM)
Low75 °F (May 22, 9:00 PM)35% (May 9, 3:30 PM)29.62 "Hg (May 21, 2:00 PM)
Average85 °F77%29.77 "Hg
* Reported May 8 8:30 PM — May 23 8:30 PM, Yangon, Weather by CustomWeather, © 2015

Note: Actual official high and low records may vary slightly from our data, if they occured in-between our weather recording intervals... More about our weather records

Advertising

Yangon weather history for previous 24 hours

 ConditionsComfort  
Time TempWeatherWind HumidityBarometerVisibility
8:30 PM
Sat, May 23
81 °FPassing clouds.2 mph84%29.77 "Hg4 mi
7:30 PM81 °FPassing clouds.3 mph84%29.74 "Hg4 mi
7:00 PM81 °FPartly sunny.2 mph84%29.71 "Hg4 mi
6:30 PM82 °FPartly sunny.5 mph84%29.71 "Hg4 mi
6:00 PM82 °FPartly sunny.3 mph84%29.71 "Hg4 mi
5:30 PM82 °FPartly sunny.2 mph84%29.68 "Hg4 mi
5:00 PM82 °FPartly sunny.2 mph84%29.68 "Hg4 mi
4:30 PM82 °FPartly sunny.6 mph84%29.68 "Hg4 mi
4:00 PM82 °FMostly cloudy.6 mph84%29.71 "Hg4 mi
3:30 PM82 °FMostly cloudy.6 mph84%29.71 "Hg4 mi
3:00 PM82 °FMostly cloudy.8 mph84%29.71 "Hg3 mi
2:30 PM81 °FMostly cloudy.6 mph84%29.71 "Hg4 mi
2:00 PM81 °FMostly cloudy.8 mph84%29.74 "Hg4 mi
1:30 PM77 °FDrizzle. Mostly cloudy.3 mph100%29.74 "Hg4 mi
1:00 PM77 °FLight rain. Mostly cloudy.3 mph100%29.77 "Hg3 mi
12:30 PM77 °FRain. Mostly cloudy.2 mph100%29.77 "Hg2 mi
12:00 PM77 °FRain. Mostly cloudy.2 mph100%29.77 "Hg2 mi
11:30 AM77 °FRain. Mostly cloudy.5 mph100%29.80 "Hg2 mi
11:00 AM77 °FHeavy rain. Mostly cloudy.2 mph100%29.80 "Hg1 mi
10:30 AM77 °FLight rain. Mostly cloudy.3 mph100%29.80 "Hg2 mi
10:00 AM77 °FRain. Mostly cloudy.5 mph100%29.80 "Hg2 mi
9:30 AM77 °FLight rain. Mostly cloudy.3 mph100%29.80 "Hg3 mi
9:00 AM79 °FHeavy rain. Mostly cloudy.8 mph100%29.80 "Hg2 mi
8:30 AM81 °FMostly cloudy.5 mph94%29.77 "Hg5 mi
8:00 AM79 °FMostly cloudy.6 mph94%29.77 "Hg4 mi
7:30 AM77 °FMostly cloudy.5 mph89%29.77 "Hg4 mi
7:00 AM77 °FDrizzle. Mostly cloudy.3 mph100%29.77 "Hg4 mi
6:30 AM75 °FDrizzle. Mostly cloudy.1 mph94%29.77 "Hg4 mi
6:00 AM75 °FDrizzle. Mostly cloudy.2 mph94%29.74 "Hg4 mi
5:30 AM75 °FMostly cloudy.2 mph94%29.74 "Hg4 mi
5:00 AM75 °FMostly cloudy.5 mph94%29.74 "Hg4 mi
4:30 AM75 °FMostly cloudy.2 mph94%29.71 "Hg4 mi
1:00 AM75 °FPartly cloudy.3 mph94%29.77 "Hg4 mi
12:30 AM75 °FPartly cloudy.1 mph94%29.77 "Hg4 mi
12:00 AM75 °FPartly cloudy.5 mph94%29.77 "Hg4 mi
11:30 PM
Fri, May 22
75 °FPartly cloudy.3 mph94%29.77 "Hg4 mi
11:00 PM75 °FPartly cloudy.5 mph94%29.77 "Hg4 mi
10:30 PM75 °FPartly cloudy.3 mph94%29.77 "Hg4 mi
10:00 PM75 °FPartly cloudy.5 mph94%29.74 "Hg4 mi
9:30 PM75 °FPartly cloudy.3 mph94%29.74 "Hg4 mi
9:00 PM75 °FPartly cloudy.3 mph94%29.74 "Hg4 mi
Weather by CustomWeather, © 2015

See weather overviewHow to use our weather pages